#timestamp,LO_Frequency,Hit,StdDev 
1620842415.9,286047000.0,N
1620842435.7,286047000.8,N
1620842455.6,286047000.9,N
1620842475.4,286047000.2,N
1620842495.2,286047002.4,N
1620842515.1,286046998.5,N
1620842516.0,286046998.5,N
1620842535.8,286047000.0,N
1620842555.7,286047002.7,N
1620842575.5,286047002.1,N
1620842595.3,286047002.2,N
1620842615.2,286047002.8,N
1620842635.0,286046999.8,N
1620842635.9,286046999.8,N
1620842655.8,286047002.8,N
1620842675.6,286047001.6,N
1620842695.4,286047000.4,N
1620842715.3,286047000.3,N
1620842735.1,286046999.7,N
1620842755.9,286047002.8,N
1620842775.7,286047001.9,N
1620842795.5,286047002.0,N
1620842815.4,286047004.1,Y
1620842835.2,286047001.9,P
1620842855.0,286047000.1,N
1620842855.9,286047000.1,N
1620842875.8,286047000.5,N
1620842895.6,286046996.6,Y
1620842915.5,286046995.6,P
1620842935.3,286046997.4,N
1620842955.1,286046997.2,N
1620842975.9,286046999.4,N
1620842995.7,286046999.1,N
1620843015.5,286047000.8,N
1620843035.4,286047001.1,N
1620843055.2,286047001.2,N
1620843075.1,286047002.8,N
1620843076.0,286047002.8,N
1620843095.8,286047000.3,N
1620843115.6,286046999.8,N
1620843135.5,286047001.3,N
1620843155.3,286047002.0,N
1620843175.1,286047001.0,N
1620843195.9,286046999.8,N
1620843215.7,286047002.3,N
1620843235.6,286047001.0,N
1620843255.4,286047000.1,N
1620843275.2,286047002.5,N
1620843295.1,286047000.6,N
1620843296.0,286047000.6,N
1620843315.8,286047000.4,N
1620843335.7,286046998.1,N
1620843355.5,286047000.3,N
1620843375.3,286046999.9,N
1620843395.2,286047001.9,N
1620843415.0,286047002.1,N
1620843415.9,286047002.1,N
1620843435.8,286047004.3,N
1620843455.6,286047003.6,N
1620843475.4,286047004.1,N
1620843495.3,286047004.2,N
1620843515.1,286047000.3,N
1620843535.8,286046998.4,N
1620843555.7,286046999.8,N
1620843575.5,286047004.0,N
1620843595.4,286047004.4,N
1620843615.2,286047003.5,N
1620843635.0,286047003.8,N
1620843635.9,286047003.8,N
1620843655.8,286047000.6,N
1620843675.6,286047000.3,N
1620843695.4,286046999.8,N
1620843715.3,286047000.6,N
1620843735.1,286047000.8,N
1620843755.9,286047000.9,N
1620843775.7,286047000.2,N
1620843795.5,286047001.0,N
1620843815.4,286047000.7,N
1620843835.2,286047000.1,N
1620843855.0,286047001.6,N
1620843855.9,286047001.6,N
1620843875.8,286047002.6,N
1620843895.6,286047002.2,N
1620843915.5,286047001.7,N
1620843935.3,286047003.4,N
1620843955.1,286047004.2,N
1620843975.9,286047001.5,N
1620843995.7,286047001.8,N
1620844015.5,286047000.3,N
1620844035.4,286047000.2,N
1620844055.2,286046998.5,N
1620844075.0,286046997.0,N
1620844076.0,286046997.0,N
1620844095.8,286046998.4,N
1620844115.6,286046998.5,N
1620844135.5,286047000.7,N
1620844155.3,286046997.3,N
1620844175.1,286046996.6,N
1620844195.9,286046998.2,N
1620844215.7,286047000.3,N
1620844235.5,286046999.0,N
1620844255.4,286046998.5,N
1620844275.2,286046996.9,N
1620844295.1,286046998.7,N
1620844296.0,286046998.7,N
1620844315.8,286046997.4,N
1620844335.6,286046998.2,N
1620844355.5,286046998.5,N
1620844375.3,286046999.7,N
1620844395.2,286047002.6,N
1620844415.9,286047000.1,N
1620844435.7,286046998.8,N
1620844455.6,286047000.9,N
1620844475.4,286046998.5,N
1620844495.2,286046998.1,N
1620844515.1,286047000.4,N
1620844516.0,286047000.4,N
1620844535.8,286047002.0,N
1620844555.7,286047003.8,N
1620844575.5,286047003.8,N
1620844595.3,286047001.6,N
1620844615.2,286047003.9,N
1620844635.0,286047000.1,N
1620844635.9,286047000.1,N
1620844655.7,286047004.4,N
1620844675.6,286047003.8,N
1620844695.4,286047004.4,N
1620844715.3,286046999.8,N
1620844735.1,286046999.6,N
1620844736.0,286046999.6,N
1620844755.8,286046995.6,N
1620844775.7,286046993.4,N
1620844795.5,286046998.0,N
1620844815.3,286046999.5,N
1620844835.2,286046997.9,N
1620844855.0,286046995.5,N
1620844855.9,286046995.5,N
1620844875.8,286046997.4,N
1620844895.6,286046994.9,N
1620844915.4,286046995.4,N
1620844935.3,286046997.7,N
1620844955.1,286046996.6,N
1620844975.9,286046996.8,N
1620844995.7,286046998.0,N
1620845015.5,286046997.9,N
1620845035.4,286046997.3,N
1620845055.2,286046997.7,N
1620845075.1,286046995.3,N
1620845076.0,286046995.3,N
1620845095.8,286046995.2,N
1620845115.6,286046995.0,N
1620845135.5,286046995.3,N
1620845155.3,286046994.5,N
1620845175.1,286046996.4,N
1620845195.9,286046996.0,N
1620845215.7,286046995.5,N
1620845235.6,286046993.7,N
1620845255.4,286046993.3,Y
1620845275.2,286046997.1,P
1620845295.1,286046996.0,P
1620845296.0,286046996.0,P
1620845315.8,286046995.4,Y
1620845335.7,286047001.0,P
1620845355.5,286047000.8,N
1620845375.3,286046998.9,N
1620845395.2,286046998.1,N
1620845415.9,286046998.4,N
1620845435.7,286046999.6,N
1620845455.6,286047000.7,N
1620845475.4,286046999.4,N
1620845495.2,286046999.1,N
1620845515.1,286046998.7,N
1620845516.0,286046998.7,N
1620845535.8,286046996.7,N
1620845555.7,286046999.5,N
1620845575.5,286046999.6,N
1620845595.3,286046999.2,N
1620845615.2,286046998.7,N
1620845635.0,286046999.4,N
1620845635.9,286046999.4,N
1620845655.7,286046997.2,N
1620845675.6,286046996.5,N
1620845695.4,286046999.3,N
1620845715.3,286046996.5,N
1620845735.1,286046999.4,N
1620845736.0,286046999.4,N
1620845755.8,286046999.4,N
1620845775.7,286046997.7,N
1620845795.5,286046996.9,N
1620845815.3,286046997.3,N
1620845835.2,286046996.5,N
1620845855.0,286046997.7,N
1620845855.9,286046997.7,N
1620845875.8,286046997.1,N
1620845895.6,286046996.7,N
1620845915.4,286046999.4,N
1620845935.3,286046998.4,N
1620845955.1,286046999.6,N
1620845975.9,286046997.0,N
1620845995.7,286046996.8,N
